Lid_Strength_Index
3 5 5 5 6 7 6 5 8 3 4 9 9 11 8 7 6 5 6 7 8 9 8 9 9 8 7 6 6 9 8 9 12 10 8 7 8 10 11 13 14 13 14 14
3 3 3 3 5 6 8 6 6 4 5 12 11 9 7 6 6 6 7 7 7 7 9 10 8 7 5 6 6 9 7 11 14 12 11 8 10 9 10 10 11 13 15 15
3 3 3 3 4 4 6 5 8 6 7 8 10 10 8 8 5 6 6 7 6 8 9 8 8 8 6 5 6 2 6 10 12 14 11 9 10 8 9 11 14 13 13 13
3 2 2 3 3 4 6 4 7 5 9 9 10 9 9 8 8 6 6 7 7 8 10 9 9 8 8 6 5 7 8 12 11 9 8 8 9 9 8 10 12 13 12 12
3 3 2 2 3 4 5 6 6 6 6 6 6 9 9 9 8 7 8 9 7 7 9 8 9 9 9 9 7 8 8 11 9 11 8 8 9 8 8 9 8 9 10 12
5 4 2 3 3 5 3 2 2 5 6 6 7 7 6 7 7 7 6 7 7 8 7 6 6 6 7 7 9 9 10 11 12 14 10 9 12 9 9 9 9 9 11 10
5 4 3 3 3 4 6 2 3 6 8 7 7 6 5 6 5 6 5 6 7 5 4 4 5 6 6 6 7 8 10 11 12 14 12 17 10 7 7 7 8 8 8 8
4 4 4 3 3 4 6 3 3 5 8 6 6 6 5 5 5 5 5 5 4 4 5 8 10 10 9 8 7 8 8 10 13 14 14 12 9 8 9 10 11 8 9 9
5 4 4 3 4 4 5 3 2 4 7 7 6 7 6 7 7 7 5 4 3 4 7 9 13 13 11 11 9 7 9 9 11 13 16 17 11 8 6 7 15 8 8 8
5 5 4 4 4 4 6 4 2 3 6 5 6 7 7 5 6 8 6 6 6 5 9 11 12 12 8 12 11 11 11 11 13 13 14 12 10 7 6 14 15 8 7 7
5 5 5 4 4 4 5 5 2 4 5 4 3 5 6 6 6 8 7 7 7 8 11 10 10 11 9 10 10 10 12 13 13 13 15 15 8 8 11 9 7 7 7 7
5 5 5 5 4 4 4 4 2 1 4 5 2 2 3 3 4 6 6 7 7 7 10 10 10 11 11 12 14 9 14 12 14 13 14 8 7 8 7 6 7 7 7 7
5 5 5 5 4 4 5 6 3 2 4 4 4 4 2 2 2 2 6 5 5 6 5 8 9 12 10 13 12 11 9 8 11 11 9 8 7 6 6 5 5 6 6 6
5 5 5 5 4 4 4 6 3 2 3 7 5 1 2 1 1 0 1 3 3 4 5 7 8 10 8 11 10 10 9 9 10 11 9 8 7 6 6 5 5 4 4 4
5 5 5 5 4 4 5 5 3 1 4 7 6 2 2 2 1 2 2 3 4 5 7 8 9 7 8 7 9 10 8 10 12 12 8 8 8 7 5 5 5 4 5 5
5 5 5 4 4 4 6 4 2 3 2 5 8 3 3 2 2 2 3 3 4 5 6 7 6 5 7 10 11 8 7 6 6 8 6 6 6 7 4 5 5 4 5 5
4 5 4 4 4 5 6 6 4 4 3 5 7 7 3 2 3 3 4 3 4 5 6 7 7 7 7 9 11 8 6 6 6 5 5 7 6 6 5 5 4 4 4 4
4 4 4 4 4 5 6 3 4 5 3 4 8 7 6 2 5 6 3 5 5 5 6 6 7 7 7 11 8 6 6 5 4 5 5 5 4 6 4 4 4 5 5 5
4 4 4 5 6 5 2 2 2 1 3 7 6 8 10 3 5 5 5 5 8 5 7 7 6 8 11 8 7 7 6 6 6 5 5 5 5 5 5 4 4 5 5 5
5 6 7 6 2 1 2 3 4 4 4 4 7 5 8 5 6 7 7 6 8 10 7 5 8 8 6 6 5 5 5 4 4 5 6 6 6 5 5 5 4 4 5 4
7 7 6 2 3 3 3 6 7 6 7 5 6 6 7 4 8 8 6 8 8 11 9 9 9 10 7 5 5 4 4 4 4 4 4 4 4 5 5 5 4 4 4 4
6 5 4 3 4 5 7 8 6 7 8 5 6 6 5 5 4 7 7 8 9 12 8 10 11 9 6 5 5 4 4 4 3 3 4 4 4 4 4 4 4 4 3 3
3 5 5 6 6 10 10 10 9 8 6 5 5 6 5 5 4 7 8 9 10 7 11 12 10 8 6 6 4 4 3 3 3 3 3 3 3 3 3 4 3 3 3 3
6 6 12 9 9 8 7 7 7 5 5 5 5 6 6 5 7 7 8 8 8 12 13 12 9 7 6 5 4 4 5 4 4 4 3 3 3 3 3 3 3 3 3 3
6 6 11 8 6 5 5 4 5 4 4 5 6 6 6 7 7 8 9 10 11 11 12 10 7 6 5 5 5 5 4 4 4 4 4 3 3 4 3 3 3 3 3 3
5 5 7 6 6 5 5 5 5 3 4 4 5 7 8 9 8 9 10 10 12 11 9 7 6 6 5 5 4 4 4 4 4 4 3 3 3 4 4 3 3 3 3 3
6 6 4 5 5 6 6 4 5 3 5 7 7 9 9 7 10 10 9 11 9 7 7 5 5 5 5 4 4 4 4 4 3 3 3 3 3 3 3 4 3 3 2 2